Home   Weather   Mysen   Past weeks

Flag for Norway Past Weather in Mysen, Norway — Yesterday and Last 2 Weeks

Now
68 °F

Scattered clouds.


Feels Like: 68 °F
Forecast: 53 / 69 °F
Wind: 5 mph from North

Location: Rygge

Current Time: Jul 24, 2017 at 4:57:26 pm

Latest Report: Jul 24, 2017 at 4:00 pm


Visibility: 28 mi

Pressure: 29.97 "Hg

Humidity: 54%

Dew Point: 51 °F

Location of MysenLocation

Past Weather in Mysen — Graph

°F

Mysen Temperature Yesterday

Maximum temperature yesterday: 78 °F (at 3:00 pm)
Minimum temperature yesterday: 56 °F (at 6:00 am)
Average temperature yesterday: 70 °F

High & Low Weather Summary for the Past Weeks

 TemperatureHumidityPressure
High78 °F (Jul 23, 3:00 pm)97% (Jul 19, 5:00 am)30.14 "Hg (Jul 19, 5:00 am)
Low45 °F (Jul 13, 4:00 am)32% (Jul 14, 3:00 pm)29.54 "Hg (Jul 12, 5:00 am)
Average62 °F67%29.89 "Hg
* Reported Jul 9 3:00 pm — Jul 24 3:00 pm, Mysen. Weather by CustomWeather, © 2017

Note: Actual official high and low records may vary slightly from our data, if they occured in-between our weather recording intervals... More about our weather records

Advertising

Mysen Weather History for the Previous 24 Hours

Scroll right to see more
 ConditionsComfort  
Time TempWeatherWind HumidityBarometerVisibility
3:00 pm
Mon, Jul 24
67 °FScattered clouds.3 mph52%29.98 "Hg25 mi
2:00 pm66 °FOvercast.3 mph53%29.99 "Hg28 mi
1:00 pm67 °FOvercast.5 mph49%29.99 "Hg28 mi
12:00 pm67 °FOvercast.5 mph52%29.98 "Hg28 mi
11:00 am66 °FPartly sunny.5 mph57%29.99 "Hg25 mi
10:00 am64 °FOvercast.6 mph65%29.98 "Hg28 mi
9:00 am62 °FOvercast.7 mph68%29.98 "Hg31 mi
8:00 am61 °FOvercast.6 mph72%29.97 "Hg28 mi
7:00 am61 °FOvercast.5 mph76%29.97 "Hg31 mi
6:00 am62 °FOvercast.3 mph77%29.96 "Hg31 mi
5:00 am63 °FRain showers. Partly sunny.3 mph74%29.96 "Hg31 mi
4:00 am63 °FOvercast.5 mph73%29.95 "Hg31 mi
3:00 am64 °FOvercast.5 mph70%29.95 "Hg31 mi
2:00 am66 °FOvercast.6 mph65%29.95 "Hg28 mi
1:00 am66 °FOvercast.6 mph68%29.95 "Hg31 mi
12:00 am66 °FOvercast.5 mph69%29.96 "Hg31 mi
11:00 pm
Sun, Jul 23
68 °FOvercast.6 mph62%29.95 "Hg31 mi
10:00 pm70 °FPartly sunny.3 mph49%29.94 "Hg25 mi
9:00 pm73 °FPartly sunny.6 mph44%29.94 "Hg13 mi
8:00 pm75 °FPassing clouds.6 mph40%29.93 "Hg13 mi
7:00 pm76 °FSunny.7 mph37%29.93 "Hg8 mi
6:00 pm78 °FSunny.7 mph35%29.94 "Hg10 mi
5:00 pm78 °FSunny.7 mph35%29.95 "Hg8 mi
4:00 pm78 °FScattered clouds.7 mph34%29.96 "Hg12 mi
Weather by CustomWeather, © 2017

See weather overviewHow to use our weather pages